TimeCST,TemperatureF,Dew PointF,Humidity,Sea Level PressureIn,VisibilityMPH,Wind Direction,Wind SpeedMPH,Gust SpeedMPH,PrecipitationIn,Events,Conditions,WindDirDegrees,DateUTC
12:26 AM,46.9,46.9,100,29.84,1.0,SSW,11.5,-,N/A,,Mist,210,2013-12-14 06:26:00
12:41 AM,46.9,46.9,100,29.84,0.8,SSW,9.2,-,N/A,,Mist,210,2013-12-14 06:41:00
12:53 AM,46.9,46.9,100,29.84,1.0,SW,8.1,-,N/A,,Mist,220,2013-12-14 06:53:00
1:24 AM,46.9,46.0,97,29.83,3.0,SW,16.1,-,N/A,,Overcast,220,2013-12-14 07:24:00
1:36 AM,46.9,46.0,97,29.83,2.5,SSW,13.8,-,0.00,Rain,Light Rain,210,2013-12-14 07:36:00
1:53 AM,46.0,46.0,100,29.84,2.5,SW,8.1,-,0.00,Rain,Light Rain,230,2013-12-14 07:53:00
2:36 AM,46.0,46.0,100,29.83,1.8,SW,8.1,-,0.00,,Overcast,220,2013-12-14 08:36:00
2:43 AM,46.0,46.0,100,29.83,2.0,SSW,9.2,-,0.00,,Overcast,210,2013-12-14 08:43:00
2:53 AM,46.0,46.0,100,29.83,2.0,SSW,11.5,-,0.00,,Overcast,210,2013-12-14 08:53:00
3:07 AM,46.0,45.0,96,29.83,1.8,SSW,6.9,-,N/A,,Overcast,210,2013-12-14 09:07:00
3:53 AM,46.0,45.0,96,29.83,1.2,SSW,10.4,-,N/A,,Overcast,200,2013-12-14 09:53:00
4:35 AM,46.0,45.0,96,29.84,2.0,SSW,11.5,-,N/A,,Overcast,200,2013-12-14 10:35:00
4:53 AM,46.0,45.0,96,29.85,1.8,SSW,12.7,-,N/A,,Overcast,200,2013-12-14 10:53:00
5:01 AM,46.0,45.0,96,29.85,2.0,SSW,9.2,-,N/A,,Overcast,210,2013-12-14 11:01:00
5:36 AM,46.0,45.0,96,29.87,1.8,SW,10.4,-,N/A,,Overcast,220,2013-12-14 11:36:00
5:53 AM,46.0,45.0,96,29.88,1.2,SW,10.4,-,N/A,,Overcast,230,2013-12-14 11:53:00
6:53 AM,44.1,44.1,100,29.93,2.0,West,6.9,-,N/A,,Mostly Cloudy,270,2013-12-14 12:53:00
7:02 AM,44.1,43.0,96,29.93,3.0,WNW,8.1,-,N/A,,Mostly Cloudy,290,2013-12-14 13:02:00
7:24 AM,45.0,43.0,93,29.95,6.0,NW,12.7,-,N/A,,Overcast,320,2013-12-14 13:24:00
7:48 AM,44.6,44.6,100,29.97,4.0,NNW,13.8,-,N/A,,Overcast,340,2013-12-14 13:48:00
7:49 AM,45.0,44.1,97,29.98,4.0,NNW,12.7,-,N/A,,Overcast,340,2013-12-14 13:49:00
7:59 AM,45.0,44.1,97,29.99,2.5,NNW,11.5,-,N/A,,Overcast,340,2013-12-14 13:59:00
8:08 AM,45.0,44.1,97,30.00,1.8,NNW,9.2,-,N/A,,Overcast,330,2013-12-14 14:08:00
8:29 AM,45.0,44.1,97,30.02,2.0,NNW,12.7,-,0.00,Rain,Light Rain,340,2013-12-14 14:29:00
8:53 AM,46.0,44.1,93,30.04,2.0,North,13.8,-,0.00,Rain,Light Rain,350,2013-12-14 14:53:00
9:05 AM,45.0,44.1,97,30.05,3.0,North,16.1,21.9,0.00,,Overcast,350,2013-12-14 15:05:00
9:53 AM,44.1,42.1,93,30.09,5.0,North,16.1,26.5,0.00,,Overcast,350,2013-12-14 15:53:00
10:10 AM,44.1,41.0,89,30.10,7.0,North,18.4,27.6,N/A,,Overcast,350,2013-12-14 16:10:00
10:53 AM,45.0,41.0,86,30.13,6.0,North,15.0,20.7,N/A,,Overcast,360,2013-12-14 16:53:00
11:53 AM,46.9,41.0,80,30.13,6.0,NNW,15.0,-,N/A,,Haze,340,2013-12-14 17:53:00
12:53 PM,45.0,39.0,80,30.14,4.0,NW,17.3,-,N/A,,Haze,320,2013-12-14 18:53:00
1:53 PM,44.1,37.0,76,30.16,5.0,NNW,19.6,27.6,N/A,,Haze,330,2013-12-14 19:53:00
2:53 PM,43.0,34.0,71,30.19,5.0,NW,20.7,32.2,N/A,,Haze,320,2013-12-14 20:53:00
3:53 PM,41.0,30.9,67,30.21,5.0,NNW,17.3,26.5,N/A,,Haze,330,2013-12-14 21:53:00
4:53 PM,39.9,30.9,70,30.23,6.0,NNW,15.0,25.3,N/A,,Haze,330,2013-12-14 22:53:00
5:18 PM,39.0,30.9,73,30.24,6.0,NNW,8.1,-,N/A,,Haze,330,2013-12-14 23:18:00
5:53 PM,37.9,30.0,73,30.26,7.0,NNW,10.4,-,N/A,,Clear,340,2013-12-14 23:53:00
6:53 PM,36.0,30.0,79,30.28,7.0,North,6.9,-,N/A,,Clear,350,2013-12-15 00:53:00
7:53 PM,35.1,28.9,78,30.30,7.0,NNW,5.8,-,N/A,,Clear,340,2013-12-15 01:53:00
8:53 PM,32.0,28.0,85,30.32,6.0,NW,5.8,-,N/A,,Clear,320,2013-12-15 02:53:00
9:53 PM,34.0,28.9,82,30.34,6.0,NW,6.9,-,N/A,,Haze,320,2013-12-15 03:53:00
10:53 PM,35.1,28.0,76,30.35,7.0,NNW,9.2,-,N/A,,Clear,340,2013-12-15 04:53:00
11:53 PM,35.1,28.0,76,30.34,7.0,NNW,11.5,-,N/A,,Clear,340,2013-12-15 05:53:00